Weather History for KCNY - June, 2012

Change the Weather History Date:

Wednesday, June 27, 2012

  Actual Average Record
Temperature  
Mean Temperature 87 °F 77 °F  
Max Temperature 98 °F 93 °F 108 °F (1936)
Min Temperature 75 °F 61 °F 46 °F (1934)
Degree Days  
Heating Degree Days 0 0  
Month to date heating degree days 2 15  
Since 1 June heating degree days 2 15  
Since 1 July heating degree days 5099 5575  
Cooling Degree Days 22 12  
Month to date cooling degree days 319 218  
Year to date cooling degree days 403 282  
Since 1 June cooling degree days 319 218  
Growing Degree Days 36 (Base 50)    
Moisture  
Dew Point 38 °F    
Average Humidity 22    
Maximum Humidity 36    
Minimum Humidity 8    
Precipitation  
Precipitation 0.00 in 0.02 in 0.10 in (1948)
Month to date precipitation T 0.46  
Year to date precipitation 0.65 3.66  
Sea Level Pressure  
Sea Level Pressure 29.74 in    
Wind  
Wind Speed 12 mph (SSW)    
Max Wind Speed 29 mph    
Max Gust Speed 36 mph    
Visibility 10 miles    
Events      
T = Trace of Precipitation, MM = Missing Value Source: NWS Daily Summary

Daily Weather History Graph

Daily Weather History Graph

Search for Another Location

Airport or City:

Trip Planner

Search our weather history database for the weather conditions in past years. The results will help you decide how hot, cold, wet, or windy it might be!

Date:

Astronomy

Jun. 27, 2012 Rise Set
Actual Time 5:56 AM MDT 8:48 PM MDT
Civil Twilight 5:24 AM MDT 9:19 PM MDT
Nautical Twilight 4:44 AM MDT 10:00 PM MDT
Astronomical Twilight 3:58 AM MDT 10:46 PM MDT
Moon 2:18 PM MDT (6/27) 12:54 AM MDT (6/27)
Length of Visible Light 15h 55m
Length of Day
14h 51m
First Quarter, 57% of the Moon is Illuminated
Jun 27
First Quarter
Jul 3
Full
Jul 10
Last Quarter
Jul 18
New
Jul 26
First Quarter

Hourly Weather History & Observations

Time (MDT) Temp. Dew Point Humidity Pressure Visibility Wind Dir Wind Speed Gust Speed Precip Events Conditions
12:53 AM 82.0 °F 48.0 °F 30% 29.65 in 10.0 mi SSE 24.2 mph 33.4 mph N/A   Clear
1:53 AM 81.0 °F 46.9 °F 30% 29.66 in 10.0 mi SSE 20.7 mph 32.2 mph N/A   Mostly Cloudy
2:53 AM 79.0 °F 48.9 °F 35% 29.69 in 10.0 mi South 13.8 mph - N/A   Clear
3:53 AM 77.0 °F 48.9 °F 37% 29.71 in 10.0 mi SSE 8.1 mph - N/A   Clear
4:53 AM 75.9 °F 46.9 °F 36% 29.72 in 10.0 mi ESE 8.1 mph - N/A   Clear
5:53 AM 75.9 °F 46.9 °F 36% 29.73 in 10.0 mi SSE 10.4 mph - N/A   Partly Cloudy
6:53 AM 75.9 °F 46.9 °F 36% 29.76 in 10.0 mi SE 6.9 mph - N/A   Clear
7:53 AM 79.0 °F 46.9 °F 32% 29.78 in 10.0 mi SE 8.1 mph - N/A   Scattered Clouds
8:53 AM 81.0 °F 46.9 °F 30% 29.79 in 10.0 mi SE 8.1 mph - N/A   Partly Cloudy
9:53 AM 82.9 °F 46.0 °F 27% 29.81 in 10.0 mi SE 9.2 mph - N/A   Partly Cloudy
10:53 AM 90.0 °F 35.1 °F 14% 29.79 in 10.0 mi WSW 16.1 mph 21.9 mph N/A   Scattered Clouds
11:53 AM 93.0 °F 32.0 °F 12% 29.77 in 10.0 mi WSW 23.0 mph 28.8 mph N/A   Clear
12:53 PM 93.0 °F 30.9 °F 11% 29.77 in 10.0 mi WSW 12.7 mph 25.3 mph N/A   Clear
1:53 PM 95.0 °F 30.0 °F 10% 29.76 in 10.0 mi WSW 12.7 mph 26.5 mph N/A   Clear
2:53 PM 95.0 °F 28.9 °F 10% 29.75 in 10.0 mi SW 8.1 mph 21.9 mph N/A   Clear
3:53 PM 96.1 °F 28.9 °F 9% 29.74 in 10.0 mi West 9.2 mph - N/A   Clear
4:53 PM 96.1 °F 28.9 °F 9% 29.72 in 10.0 mi West 10.4 mph 19.6 mph N/A   Clear
5:53 PM 98.1 °F 27.0 °F 8% 29.70 in 10.0 mi SW 17.3 mph 25.3 mph N/A   Clear
6:53 PM 96.1 °F 28.0 °F 9% 29.70 in 10.0 mi WSW 13.8 mph 20.7 mph N/A   Clear
7:53 PM 95.0 °F 30.9 °F 10% 29.70 in 10.0 mi SW 13.8 mph - N/A   Clear
8:53 PM 90.0 °F 32.0 °F 13% 29.71 in 10.0 mi SW 9.2 mph - N/A   Clear
9:53 PM 81.0 °F 30.9 °F 16% 29.75 in 10.0 mi SW 9.2 mph - N/A   Clear
10:53 PM 82.9 °F 33.1 °F 17% 29.75 in 10.0 mi SW 9.2 mph - N/A   Clear
11:53 PM 86.0 °F 42.1 °F 21% 29.76 in 10.0 mi SSE 19.6 mph 28.8 mph N/A   Clear